Regional Weather Roundup
Issued by NWS Boston, MA

Home | Current Version | Previous Version | Text Only | Print | Product List | Glossary On
Versions: 1 2 3 4 5 6 7 8 9 10 11 12 13 14 15 16 17 18 19 20 21 22 23 24 25 26 27 28 29 30 31 32 33 34 35 36 37 38 39 40 41 42 43 44 45 46 47 48 49 50
113
ASUS41 KBOX 061810
RWRBOX

REGIONAL WEATHER ROUNDUP
NATIONAL WEATHER SERVICE TAUNTON MA
200 PM EDT FRI MAY 06 2016

NOTE:  "FAIR" INDICATES FEW OR NO CLOUDS BELOW 12,000 FEET WITH NO
SIGNIFICANT WEATHER AND/OR OBSTRUCTIONS TO VISIBILITY.  THE FOLLOWING
OBSERVATION LOCATIONS DO NOT REPORT PRESENT WEATHER...PROVINCETOWN...
SMITHFIELD...BLOCK ISLAND...KEENE...AND OXFORD.

MAZALL-061900-
EASTERN MASSACHUSETTS

CITY           SKY/WX    TMP DP  RH WIND       PRES   REMARKS
BOSTON         PTSUNNY   50  44  80 E16       29.89R
6HR MIN TEMP:  49; 6HR MAX TEMP:  53;

BEVERLY        SUNNY     55  43  63 N10       29.87R
LAWRENCE       PTSUNNY   58  45  62 E12       29.88R
BEDFORD        CLOUDY    60  47  61 E15       29.85R
BLUE HILL        N/A     51  43  74 E17G26    29.84R
NORWOOD        CLOUDY    56  44  64 E15       29.86R
MARSHFIELD     CLOUDY    50  45  81 NE13      29.89
PLYMOUTH       CLOUDY    51  44  77 E16G23    29.87R
TAUNTON        PTSUNNY   58  44  60 E10G20    29.85R
NEW BEDFORD    CLOUDY    57  46  66 NE13      29.83R
$$

MAZALL-061900-
CAPE COD AND THE ISLANDS

CITY           SKY/WX    TMP DP  RH WIND       PRES   REMARKS
FALMOUTH       CLOUDY    54  45  71 E17G25    29.85S
HYANNIS        CLOUDY    54  44  69 E13       29.84S
CHATHAM        CLOUDY    49  43  80 E14G23    29.89R
PROVINCETOWN   CLOUDY    51  44  77 E15       29.89R
NANTUCKET      CLOUDY    52  44  74 NE20G29   29.84F
MARTHAS VNYRD  PTSUNNY   53  44  71 E23G30    29.83F
$$

MAZALL-061900-
CENTRAL AND WESTERN MASSACHUSETTS

CITY           SKY/WX    TMP DP  RH WIND       PRES   REMARKS
WORCESTER      CLOUDY    58  46  64 E12       29.83R
6HR MIN TEMP:  47; 6HR MAX TEMP:  58;

FITCHBURG      CLOUDY    61  47  59 E9        29.84S
ORANGE         CLOUDY    64  48  56 E12       29.81R
SPRINGFIELD    PTSUNNY   63  48  59 E10       29.78R
WESTFIELD      LGT RAIN  63  47  55 E6        29.78S
NORTH ADAMS    CLOUDY    64  46  52 E14       29.76F
PITTSFIELD     CLOUDY    60  47  61 VRB5      29.76R
$$

RIZALL-061900-
RHODE ISLAND

CITY           SKY/WX    TMP DP  RH WIND       PRES   REMARKS
PROVIDENCE     CLOUDY    56  46  69 E14       29.83S
6HR MIN TEMP:  49; 6HR MAX TEMP:  60;

NEWPORT        CLOUDY    56  47  71 NE8       29.82R
BLOCK ISLAND   CLOUDY    48  46  93 E14G23    29.83R
SMITHFIELD     CLOUDY    57  45  62 E13G20    29.84R
WESTERLY       CLOUDY    53  48  83 E14G20    29.81S
$$

CTZALL-061900-
CONNECTICUT

CITY           SKY/WX    TMP DP  RH WIND       PRES   REMARKS
BRADLEY INTL   LGT RAIN  62  48  60 E12       29.77S
6HR MIN TEMP:  50; 6HR MAX TEMP:  63; 6HR PCP: TRACE;

HARTFORD       CLOUDY    64  49  57 E10       29.77S
BRIDGEPORT     CLOUDY    53  47  79 E15G23    29.76R
DANBURY        LGT RAIN  54  50  86 E7        29.77R FOG
GROTON         CLOUDY    54  49  83 E18       29.78F
NEW HAVEN      CLOUDY    51  47  86 SE16      29.78R
CHESTER        LGT RAIN  59  50  72 E10       29.76S
MERIDEN        CLOUDY    62  48  60 NE8       29.76S
WILLIMANTIC    CLOUDY    62  47  57 E12       29.80S
OXFORD         CLOUDY    55  46  71 E10       29.77S
$$

MEZ002-015-021-024-NHZ003-005-008-011-012-014-VTZ005-008-061900-
NORTHERN NEW ENGLAND

CITY           SKY/WX    TMP DP  RH WIND       PRES   REMARKS
PORTLAND ME    PTSUNNY   60  46  59 E8        29.87R
6HR MIN TEMP:  49; 6HR MAX TEMP:  61;

BANGOR ME      MOSUNNY   66  44  45 N12       29.86S
CONCORD NH     SUNNY     69  47  45 VRB7      29.83S
MANCHESTER NH  PTSUNNY   65  47  52 E10       29.82S
NASHUA NH      CLOUDY    63  48  58 E15       29.84S
PORTSMOUTH NH  SUNNY     55  44  64 E13       29.86R
JAFFREY NH     CLOUDY    62  47  57 SE8       29.82S
KEENE NH       CLOUDY    64  46  52 NE10G16   29.81S
BURLINGTON VT  FAIR      64  38  38 NW20G29   29.83F
MT. WASHINGTON PTSUNNY   46  41  81 S3          N/A
$$

NYZ052-076-061900-
EASTERN NEW YORK

CITY           SKY/WX    TMP DP  RH WIND       PRES   REMARKS
ALBANY         PTSUNNY   62  45  53 N7        29.78F
6HR MIN TEMP:  52; 6HR MAX TEMP:  62; 6HR PCP:  0.01;

NEW YORK CITY  CLOUDY    53  51  93 NE13      29.73S
6HR MIN TEMP:  50; 6HR MAX TEMP:  53; 6HR PCP:  0.18;

$$

ANZALL-061900-
MARINE OBSERVATIONS

STATION/POSITION TIME  TEMP    WIND        PRES    VSBY  WAVE
                       AIR SEA DIR/SP/G                  HT/PER
                 (UTC) (F)     (DEG/KT/KT) (MB)    (MI)  (FT/S)
BOSTON BUOY      1750   47 47   70/ 10/ 12 1011.5R         6/ 8
BUZZARDS BAY     1700   49      40/ 20/ 23 1010.0R
NANTUCKET SOUND  1750   47 46   60/ 16/ 17 1010.8R         3/ 8
MASS BAY-STELLWA 1704   46 47                N/A    1 7/8  7/10
ISLE OF SHOALS   1700   47     100/ 11/ 12 1011.3R
S OF BLOCK IS    NOT AVBL
$$

......................KEY.........................
  SKY/WX - SKY CONDITION/PRESENT WEATHER
  TMP    - TEMPERATURE IN FAHRENHEIT
  DWPT   - DEWPOINT IN FAHRENHEIT
  RH     - RELATIVE HUMIDITY IN PERCENT
  WIND   - DIRECTION AND SPEED IN MPH
  PRES   - MEAN SEA LEVEL PRESSURE IN INCHES OF HG
  WCI    - WIND CHILL INDEX
  VSB    - VISIBILITY IN MILES
  HX     - HEAT INDEX
  TC     - TEMPERATURE IN CELSIUS
  VRB    - VARIABLE WIND DIRECTION
  N/A    - NOT AVAILABLE




USA.gov is the U.S. government's official web portal to all federal, state and local government web resources and services.